www.pogodaiklimat.ru

Погода и климат >> Архив погоды >> Норвегия >> Солвер III


ПОГОДА в Солвер III

  • Прогноз погоды в Солвер III
  • Монитор погоды в Солвер III

АРХИВ ПОГОДЫ в Солвер III

Время (UTC), дата Ветер
(напр.,м/с)
 
Видим.   Явления Облачность Т
(С)
Тd
(С)
f
(%)
Тe
(С)
Тes
(С)
Комфортность P
(гПа)
Po
(гПа)
Тmin
(С)
Tmax
(С)
R
(мм)
R24
(мм)
S
(см)
13 18.06 ЮВ 3-4
{5}
н/о н/о +14.7 +9.1 69 +14 +14 1009.1 1007.9
14 18.06 ЮВ 2-4
{4}
н/о н/о +15.4 +8.2 62 +15 +15 1009.1 1007.9
15 18.06 ЮВ 2-3
{4}
н/о н/о +14.7 +8.2 65 +14 +14 1009.2 1008.0
16 18.06 ЮЗ 2-3
{5}
н/о н/о +15.4 +8.4 63 +15 +15 1009.0 1007.8
17 18.06 ЮВ 2-2
{3}
н/о н/о +15.8 +7.6 58 +16 +16 1008.5 1007.3
18 18.06 ЮВ 2-3
{5}
н/о н/о +15.0 +8.0 63 +15 +15 1008.0 1006.8 +10.9 +16.5
19 18.06 ЮЗ 4-6
{6}
н/о н/о +13.7 +8.6 71 +12 +12 1008.1 1006.9
20 18.06 ЮЗ 4-5
{7}
н/о н/о +12.3 +8.6 78 +10 +10 1008.3 1007.1
21 18.06 Ю 2-5
{7}
н/о н/о +11.1 +8.9 86 +10 +10 1008.4 1007.2
22 18.06 ЮЗ 4-7
{7}
н/о н/о +11.2 +9.6 90 +9 +9 1008.3 1007.1
23 18.06 ЮЗ 4-5
{6}
н/о н/о +10.9 +9.5 91 +8 +8 1008.2 1007.0
00 19.06 Ю 2-5
{7}
н/о н/о +10.5 +9.3 92 +9 +9 1008.6 1007.4
01 19.06 ЮЗ 4-5
{6}
н/о н/о +11.1 +9.9 92 +9 +9 1008.8 1007.6
02 19.06 ЮЗ 3-4
{6}
н/о н/о +11.0 +9.8 92 +9 +9 1008.9 1007.6
03 19.06 ЮЗ 3-4
{5}
н/о н/о +11.2 +9.8 91 +9 +9 1008.8 1007.6
04 19.06 ЮЗ 3-4
{5}
н/о н/о +11.3 +9.7 90 +9 +9 1008.9 1007.6
05 19.06 ЮЗ 4-6
{7}
н/о н/о +11.6 +10.0 90 +9 +9 1009.1 1007.9
06 19.06 ЮЗ 5-7
{8}
н/о н/о +12.0 +9.9 87 +9 +9 1009.2 1008.0 +10.5 +15.5
07 19.06 ЮЗ 5-6
{7}
н/о н/о +12.0 +9.6 85 +10 +10 1009.7 1008.5
08 19.06 ЮЗ 4-6
{7}
н/о н/о +12.3 +10.2 87 +10 +10 1010.1 1008.9
09 19.06 ЮЗ 5-8
{8}
н/о н/о +13.5 +10.3 81 +12 +12 1010.4 1009.2
10 19.06 ЮЗ 6-8
{9}
н/о н/о +14.6 +10.4 76 +13 +13 1010.9 1009.7
11 19.06 ЮЗ 6-9
{10}
н/о н/о +13.2 +9.5 78 +11 +11 1011.4 1010.2
12 19.06 ЮЗ 6-9
{10}
н/о н/о +14.4 +9.2 71 +13 +13 1011.6 1010.4
13 19.06 ЮЗ 6-9
{9}
н/о н/о +14.5 +8.2 66 +13 +13 1011.9 1010.7
14 19.06 ЮЗ 7-9
{9}
н/о н/о +13.7 +9.2 74 +11 +11 1012.3 1011.1
15 19.06 ЮЗ 5-9
{9}
н/о н/о +14.5 +9.3 71 +13 +13 1012.1 1010.9
16 19.06 ЮЗ 4-6
{8}
н/о н/о +13.5 +8.8 73 +12 +12 1012.2 1011.0
17 19.06 ЮЗ 3-5
{6}
н/о н/о +13.8 +8.9 72 +13 +13 1012.1 1010.9
18 19.06 ЮЗ 2-5
{9}
н/о н/о +13.6 +8.2 70 +13 +13 1012.0 1010.8 +12.0 +15.1
19 19.06 ЮВ 2-3
{4}
н/о н/о +13.1 +8.4 73 +12 +12 1012.0 1010.8
20 19.06 ЮВ 1-2
{2}
н/о н/о +13.0 +8.3 73 +13 +13 1012.0 1010.8
21 19.06 штиль 0-1
{1}
н/о н/о +13.4 +8.9 74 +13 +13 1012.0 1010.8
22 19.06 СЗ 2-2
{2}
н/о н/о +11.3 +8.4 82 +10 +10 1012.0 1010.8
23 19.06 СВ 2-2
{3}
н/о н/о +10.9 +9.3 90 +10 +10 1012.1 1010.9
00 20.06 СВ 3-3
{4}
н/о н/о +10.5 +9.1 91 +8 +8 1011.7 1010.5
01 20.06 СВ 3-3
{4}
н/о н/о +11.0 +9.3 89 +9 +9 1011.2 1010.0
02 20.06 СВ 2-3
{3}
н/о н/о +11.1 +9.5 90 +10 +10 1010.6 1009.4
03 20.06 СВ 3-3
{4}
н/о н/о +11.7 +10.0 89 +10 +10 1010.2 1009.0
04 20.06 СВ 3-4
{4}
н/о н/о +12.9 +9.4 79 +12 +12 1009.3 1008.1
05 20.06 СВ 3-4
{4}
н/о н/о +12.7 +9.2 79 +11 +11 1008.9 1007.7
06 20.06 СВ 3-4
{4}
н/о н/о +14.9 +9.5 70 +14 +14 1008.2 1007.0 +10.5 +14.9
07 20.06 В 7-11
{11}
н/о н/о +15.8 +7.1 56 +14 +14 1007.6 1006.4
08 20.06 В 8-11
{12}
н/о н/о +16.2 +7.4 56 +15 +15 1007.4 1006.2
09 20.06 ЮВ 7-10
{10}
н/о н/о +15.8 +8.1 60 +14 +14 1007.2 1006.0
10 20.06 ЮВ 7-10
{10}
н/о н/о +15.8 +8.3 61 +14 +14 1006.9 1005.7
11 20.06 В 10-13
{15}
н/о н/о +14.7 +8.2 65 +12 +12 1006.6 1005.4
12 20.06 В 7-11
{15}
н/о н/о +14.8 +8.5 66 +13 +13 1006.1 1004.9
13 20.06 В 6-8
{10}
н/о н/о +14.9 +8.2 64 +13 +13 1005.5 1004.3
14 20.06 В 10-13
{13}
н/о н/о +15.5 +7.8 60 +13 +13 1004.5 1003.4
15 20.06 В 6-10
{12}
н/о н/о +15.0 +8.5 65 +13 +13 1004.0 1002.8
16 20.06 В 8-12
{12}
н/о н/о +15.2 +8.7 65 +13 +13 1003.3 1002.2
17 20.06 В 10-12
{12}
н/о н/о +15.1 +8.8 66 +13 +13 1002.8 1001.6
18 20.06 В 8-11
{13}
н/о н/о +15.3 +8.8 65 +13 +13 1002.3 1001.1 +14.6 +16.3
19 20.06 ЮВ 6-10
{10}
н/о н/о +15.6 +9.3 66 +14 +14 1002.4 1001.2
20 20.06 ЮВ 5-7
{9}
н/о н/о +15.3 +9.7 69 +14 +14 1002.2 1001.1
21 20.06 ЮВ 6-8
{9}
н/о н/о +15.3 +9.4 68 +14 +14 1002.1 1000.9
22 20.06 ЮВ 6-9
{9}
н/о н/о +14.7 +9.5 71 +13 +13 1001.9 1000.7
23 20.06 ЮВ 6-9
{9}
н/о н/о +14.8 +9.4 70 +13 +13 1001.6 1000.4
00 21.06 ЮВ 6-8
{10}
н/о н/о +15.0 +9.6 70 +13 +13 1001.7 1000.5
01 21.06 ЮЗ 2-7
{7}
н/о н/о +13.5 +10.1 80 +13 +13 1002.0 1000.8
02 21.06 ЮЗ 4-6
{6}
н/о н/о +13.4 +10.8 84 +12 +12 1002.2 1001.0
03 21.06 ЮЗ 6-9
{9}
н/о н/о +12.6 +11.3 92 +10 +10 1002.4 1001.2
04 21.06 ЮЗ 5-8
{8}
н/о н/о +12.2 +11.3 94 +10 +10 1002.6 1001.4
05 21.06 ЮЗ 6-9
{10}
н/о н/о +11.8 +11.2 96 +9 +9 1002.8 1001.6
06 21.06 Ю 5-8
{10}
н/о н/о +11.7 +11.2 97 +9 +9 1002.9 1001.7 +11.7 +16.0
07 21.06 ЮЗ 6-9
{9}
н/о н/о +11.8 +11.3 97 +9 +9 1003.2 1002.0
08 21.06 ЮЗ 6-9
{9}
н/о н/о +11.5 +11.2 98 +8 +8 1003.6 1002.5
09 21.06 ЮЗ 6-8
{8}
н/о н/о +11.2 +10.9 98 +8 +8 1004.2 1003.0
10 21.06 ЮЗ 7-10
{10}
н/о н/о +11.0 +10.7 98 +7 +7 1004.6 1003.4
11 21.06 ЮЗ 7-9
{11}
н/о н/о +11.0 +10.5 97 +7 +7 1005.1 1003.9
12 21.06 ЮЗ 6-8
{13}
н/о н/о +11.4 +10.5 94 +8 +8 1005.8 1004.6
13 21.06 ЮЗ 5-8
{9}
н/о н/о +11.4 +10.5 94 +9 +9 1006.5 1005.3
14 21.06 ЮЗ 5-7
{8}
н/о н/о +11.1 +10.3 95 +8 +8 1007.0 1005.8
15 21.06 ЮЗ 5-7
{7}
н/о н/о +11.3 +10.5 95 +8 +8 1007.2 1006.0
16 21.06 Ю 7-10
{10}
н/о н/о +11.6 +10.5 93 +8 +8 1007.4 1006.2
17 21.06 ЮЗ 3-9
{9}
н/о н/о +11.4 +10.3 93 +9 +9 1007.5 1006.3
18 21.06 ЮЗ 4-5
{10}
н/о н/о +11.2 +9.8 91 +9 +9 1007.4 1006.2 +10.9 +11.9
19 21.06 ЮЗ 3-5
{6}
н/о н/о +11.3 +9.7 90 +9 +9 1007.7 1006.5
20 21.06 ЮЗ 3-5
{6}
н/о н/о +11.1 +9.4 89 +9 +9 1007.7 1006.5
21 21.06 Ю 3-5
{6}
н/о н/о +10.7 +9.3 91 +9 +9 1007.8 1006.6
22 21.06 Ю 4-5
{6}
н/о н/о +10.8 +9.2 90 +8 +8 1007.9 1006.7
23 21.06 ЮЗ 4-7
{7}
н/о н/о +10.8 +9.6 92 +8 +8 1007.9 1006.7
00 22.06 ЮЗ 4-6
{7}
н/о н/о +10.8 +9.6 92 +8 +8 1007.9 1006.6
01 22.06 ЮЗ 4-6
{8}
н/о н/о +10.7 +9.5 92 +8 +8 1007.9 1006.7
02 22.06 Ю 4-7
{7}
н/о н/о +10.9 +9.2 89 +8 +8 1007.9 1006.7
03 22.06 ЮЗ 5-7
{8}
н/о н/о +10.7 +8.8 88 +8 +8 1008.1 1006.9
04 22.06 ЮЗ 4-6
{6}
н/о н/о +11.0 +8.6 85 +9 +9 1008.0 1006.8
05 22.06 ЮЗ 4-7
{7}
н/о н/о +11.7 +8.7 82 +10 +10 1007.9 1006.7
06 22.06 ЮЗ 4-6
{9}
н/о н/о +10.9 +8.7 86 +8 +8 1008.0 1006.8 +10.5 +12.2
07 22.06 ЮЗ 7-10
{10}
н/о н/о +11.5 +8.7 83 +8 +8 1008.0 1006.8
08 22.06 ЮЗ 7-9
{11}
н/о н/о +12.1 +8.4 78 +9 +9 1008.6 1007.4
09 22.06 ЮЗ 8-10
{11}
н/о н/о +11.5 +7.8 78 +8 +8 1009.2 1008.0
10 22.06 ЮЗ 6-11
{12}
н/о н/о +11.4 +8.8 84 +8 +8 1010.0 1008.8
11 22.06 ЮЗ 8-12
{12}
н/о н/о +12.4 +8.1 75 +9 +9 1010.1 1008.9
12 22.06 ЮЗ 8-12
{14}
н/о н/о +12.9 +8.4 74 +10 +10 1010.5 1009.3
13 22.06 ЮЗ 10-13
{15}
н/о н/о +10.9 +7.8 81 +7 +7 1011.1 1009.9
14 22.06 ЮЗ 11-15
{15}
н/о н/о +12.3 +7.4 72 +9 +9 1011.5 1010.3
15 22.06 ЮЗ 9-13
{15}
н/о н/о +11.2 +7.3 77 +7 +7 1011.8 1010.6
16 22.06 ЮЗ 9-14
{15}
н/о н/о +10.9 +8.1 83 +7 +7 1012.3 1011.1
17 22.06 ЮЗ 10-13
{15}
н/о н/о +10.3 +7.4 82 +6 +6 1012.5 1011.3
18 22.06 ЮЗ 8-12
{15}
н/о н/о +11.1 +7.6 79 +8 +8 1012.6 1011.4 +10.1 +12.9
19 22.06 ЮЗ 8-12
{13}
н/о н/о +9.0 +7.8 92 +4 +4 1012.9 1011.7
20 22.06 ЮЗ 7-10
{15}
н/о н/о +10.0 +8.1 88 +6 +6 1013.1 1011.9
21 22.06 ЮЗ 7-10
{11}
н/о н/о +10.0 +7.9 87 +6 +6 1013.5 1012.3
22 22.06 ЮЗ 8-12
{12}
н/о н/о +9.4 +7.7 89 +5 +5 1014.1 1012.9
23 22.06 ЮЗ 5-8
{10}
н/о н/о +9.7 +8.0 89 +6 +6 1014.5 1013.3
00 23.06 ЮЗ 6-9
{15}
н/о н/о +9.9 +7.5 85 +6 +6 1014.7 1013.5
01 23.06 ЮЗ 6-8
{9}
н/о н/о +9.7 +7.3 85 +6 +6 1015.0 1013.8
02 23.06 ЮЗ 6-8
{8}
н/о н/о +10.0 +7.9 87 +6 +6 1015.1 1013.9
03 23.06 ЮЗ 7-10
{10}
н/о н/о +10.3 +8.2 87 +7 +7 1015.0 1013.8
04 23.06 ЮЗ 5-8
{11}
н/о н/о +10.7 +7.8 82 +8 +8 1015.2 1013.9
05 23.06 Ю 6-9
{9}
н/о н/о +10.6 +8.7 88 +7 +7 1015.2 1014.0
06 23.06 ЮЗ 5-9
{11}
н/о н/о +10.7 +8.6 87 +8 +8 1015.4 1014.2 +9.0 +11.1
07 23.06 ЮЗ 6-9
{11}
н/о н/о +11.1 +9.2 88 +8 +8 1015.7 1014.5
08 23.06 ЮЗ 5-8
{9}
н/о н/о +12.1 +9.0 81 +10 +10 1016.3 1015.0
09 23.06 ЮЗ 6-9
{10}
н/о н/о +11.3 +8.0 80 +8 +8 1017.0 1015.8
10 23.06 ЮЗ 5-9
{9}
н/о н/о +10.9 +8.7 86 +8 +8 1017.8 1016.5
11 23.06 ЮЗ 7-9
{10}
н/о н/о +11.8 +7.5 75 +9 +9 1018.2 1017.0
12 23.06 ЮЗ 5-8
{11}
н/о н/о +11.2 +8.4 83 +8 +8 1018.6 1017.4
13 23.06 ЮЗ 7-10
{10}
н/о н/о +11.8 +8.7 81 +9 +9 1019.0 1017.8
14 23.06 ЮЗ 7-9
{10}
н/о н/о +11.0 +8.1 82 +8 +8 1019.8 1018.6
15 23.06 ЮЗ 6-9
{11}
н/о н/о +10.0 +8.1 88 +6 +6 1020.5 1019.3
16 23.06 ЮЗ 6-9
{10}
н/о н/о +11.1 +8.5 84 +8 +8 1020.6 1019.4
17 23.06 ЮЗ 6-9
{9}
н/о н/о +10.3 +8.4 88 +7 +7 1020.9 1019.6
18 23.06 Ю 6-8
{11}
н/о н/о +10.3 +8.6 89 +7 +7 1021.2 1019.9 +9.8 +12.9
19 23.06 ЮЗ 5-8
{10}
н/о н/о +10.0 +8.8 92 +7 +7 1021.5 1020.3
20 23.06 ЮЗ 5-6
{8}
н/о н/о +10.1 +8.9 92 +7 +7 1022.2 1020.9
21 23.06 ЮЗ 5-7
{7}
н/о н/о +9.9 +8.5 91 +7 +7 1022.8 1021.5
22 23.06 З 6-7
{10}
н/о н/о +9.6 +8.2 91 +6 +6 1023.5 1022.3
23 23.06 ЮЗ 4-6
{8}
н/о н/о +9.6 +8.4 92 +7 +7 1024.3 1023.1
00 24.06 З 6-10
{10}
н/о н/о +9.5 +7.8 89 +6 +6 1025.0 1023.7
01 24.06 З 6-9
{10}
н/о н/о +9.0 +6.8 86 +5 +5 1025.7 1024.5
02 24.06 ЮЗ 5-7
{8}
н/о н/о +9.5 +6.8 83 +6 +6 1026.2 1025.0
03 24.06 З 5-7
{8}
н/о н/о +9.8 +6.2 78 +7 +7 1026.6 1025.4
04 24.06 ЮЗ 5-8
{8}
н/о н/о +9.4 +6.8 84 +6 +6 1027.0 1025.8
05 24.06 ЮЗ 4-8
{10}
н/о н/о +9.5 +7.3 86 +7 +7 1027.2 1026.0
06 24.06 З 5-7
{11}
н/о н/о +8.8 +6.9 88 +5 +5 1027.6 1026.3 +8.5 +10.5
07 24.06 ЮЗ 6-8
{8}
н/о н/о +9.7 +5.7 76 +6 +6 1028.0 1026.8
08 24.06 ЮЗ 7-9
{9}
н/о н/о +10.1 +5.7 74 +7 +7 1028.4 1027.1
09 24.06 ЮЗ 4-8
{11}
н/о н/о +10.0 +6.2 77 +7 +7 1029.0 1027.7
10 24.06 ЮЗ 7-10
{10}
н/о н/о +9.3 +6.9 85 +5 +5 1029.4 1028.1
11 24.06 ЮЗ 6-8
{10}
н/о н/о +10.2 +7.1 81 +7 +7 1029.4 1028.2
12 24.06 З 5-8
{11}
н/о н/о +10.3 +6.3 76 +7 +7 1029.9 1028.7
13 24.06 З 4-6
{8}
н/о н/о +9.6 +7.0 84 +7 +7 1030.2 1029.0
14 24.06 З 6-8
{9}
н/о н/о +9.8 +7.2 84 +6 +6 1030.4 1029.2
15 24.06 З 6-8
{9}
н/о н/о +9.2 +6.7 84 +5 +5 1030.7 1029.4
16 24.06 ЮЗ 3-6
{7}
н/о н/о +10.8 +6.9 77 +9 +9 1030.8 1029.6
17 24.06 З 4-6
{6}
н/о н/о +11.5 +7.4 76 +9 +9 1030.5 1029.3
18 24.06 З 3-5
{9}
н/о н/о +10.9 +6.9 76 +9 +9 1030.3 1029.1 +8.7 +11.6
19 24.06 З 3-4
{5}
н/о н/о +9.8 +6.5 80 +8 +8 1030.4 1029.2
20 24.06 ЮЗ 2-4
{4}
н/о н/о +9.6 +6.7 82 +8 +8 1030.5 1029.2
21 24.06 ЮЗ 2-3
{3}
н/о н/о +9.5 +6.4 81 +8 +8 1030.5 1029.3
22 24.06 ЮЗ 2-3
{3}
н/о н/о +9.3 +6.7 84 +8 +8 1030.2 1029.0
23 24.06 ЮЗ 2-3
{3}
н/о н/о +9.3 +6.9 85 +8 +8 1030.2 1029.0
00 25.06 Ю 3-4
{5}
н/о н/о +9.2 +7.0 86 +7 +7 1029.9 1028.7
01 25.06 Ю 2-3
{4}
н/о н/о +8.7 +7.3 91 +7 +7 1029.7 1028.4
02 25.06 ЮЗ 3-4
{4}
н/о н/о +9.2 +7.3 88 +7 +7 1029.6 1028.3
03 25.06 ЮЗ 3-4
{4}
н/о н/о +9.4 +6.5 82 +7 +7 1029.4 1028.1
04 25.06 ЮЗ 2-4
{4}
н/о н/о +9.7 +6.6 81 +8 +8 1029.1 1027.9
05 25.06 Ю 2-4
{4}
н/о н/о +9.9 +7.5 85 +8 +8 1028.8 1027.6
06 25.06 ЮЗ 2-4
{5}
н/о н/о +9.8 +7.2 84 +8 +8 1028.6 1027.4 +8.7 +10.8
07 25.06 ЮЗ 2-4
{5}
н/о н/о +10.1 +6.8 80 +9 +9 1028.6 1027.4
08 25.06 З 3-4
{4}
н/о н/о +10.8 +6.2 73 +9 +9 1028.5 1027.3
09 25.06 З 3-4
{5}
н/о н/о +11.4 +5.7 68 +10 +10 1028.5 1027.2
10 25.06 З 3-4
{5}
н/о н/о +12.5 +6.8 68 +11 +11 1028.0 1026.8
11 25.06 С 4-5
{6}
н/о н/о +10.4 +5.8 73 +8 +8 1027.7 1026.5

 

Местоположение метеостанции Солвер III (Норвегия): широта 66.37 долгота 12.61 высота над уровнем моря 10 м.

В архиве по умолчанию представлена погода в Солвер III за последнюю неделю. Архивные данные за месяц целиком и за предыдущие месяцы, начиная с января 2011 года, Вы можете получить, выбрав интересующий диапазон дат из раскрывающегося списка и нажав кнопку "Ввод!".


*Определитесь, кто Вы:
робот инопланетянин человек

Внимание! Время в таблицах - всемирное. Для получения местного времени необходимо прибавить поправку, которая равна 1 ч.

Смотрите также архив погоды в соседних городах и на ближайших метеорологических станциях:

Погода на Мыкене (Норвегия) (45 км)
Погода в Саннесшёэн аэропорту (Норвегия) (46 км)
Погода в Сельджеля (Норвегия) (51 км)
Погода в Скамдале (Норвегия) (59 км)
Погода в Хьётте (Норвегия) (61 км)
Погода в Мосьен аэропорту (Норвегия) (71 км)
Погода в Рейпе (Норвегия) (75 км)
Погода в Аэропорту Mo i Rana (Норвегия) (75 км)
Погода в Вега-Валсё (Норвегия) (82 км)
Погода в Сторфоршее (Норвегия) (86 км)

Пояснения к столбцам:

Ветер - указаны скорость ветра в м/с - средняя за 10 мин, порывы в срок и между сроками (в фигурных скобках) и направление, откуда дует ветер: С - северный, СВ - северо-восточный, В - восточный, ЮВ - юго-восточный, Ю - южный, ЮЗ - юго-западный, З - западный, СЗ - северо-западный.
Видимость - горизонтальная дальность видимости в метрах или километрах. При видимости от 1 до 10 км при отсутствии осадков обычно наблюдается дымка, при ухудшении видимости до 1 км и менее - туман. В сухую погоду видимость может ухудшаться дымом, пылью или мглою.
Явления - указаны атмосферные явления, наблюдавшиеся в срок или в последний час перед сроком; фигурными скобками обозначены явления, наблюдавшиеся между сроками (за 1-3 часа до срока); квадратными скобками обозначены град или гололедные отложения с указанием их диаметра в мм.
Облачность - указаны через наклонную черту общая и нижняя облачность в баллах и высота нижней границы облаков в метрах; квадратными скобками обозначены формы облаков: Ci - перистые, Cs - перисто-слоистые, Cc - перисто-кучевые, Ac - высококучевые, As - высокослоистые, Sc - слоисто-кучевые, Ns - слоисто-дождевые, Cu - кучевые, Cb - кучево-дождевые. Подробнее классификацию облаков см. в Атласе облаков (PDF).
T - Температура воздуха - температура, измеренная на высоте 2 м над землей.
Td - Температура точки росы - температура, при понижении до которой содержащийся в воздухе водяной пар достигнет насыщения.
f - Относительная влажность воздуха - влажноcть воздуха, измеренная на высоте 2 м над землей.
Te - Эффективная температура - температура, которую ощущает одетый по сезону человек в тени. Характеристика душности погоды. При расчете учитывается влияние влажности воздуха и скорости ветра на теплоощущения человека.
Tes - Эффективная температура на солнце - температура, которую ощущает человек, с поправкой на солнечный нагрев. Характеристика знойности погоды. Зависит от высоты солнца над горизонтом, облачности и скорости ветра. Ночью, в пасмурную погоду, а также при ветре 12 м/с и более поправка равна нулю.
P - Атмосферное давление - приведенное к уровню моря атмосферное давление.
Po - Атмосферное давление - измеренное на уровне метеостанции атмосферное давление.
Tmin - Минимальная температура - минимум температуры воздуха на высоте 2 м над землей.
Tmax - Максимальная температура - максимум температуры воздуха на высоте 2 м над землей.
R - Количество осадков - Количество выпавших осадков за период времени, мм. При наведении курсора мыши на число - период времени, за который выпало указанное количество осадков.
R24 - Количество осадков - Количество выпавших осадков за 24 часа, мм.
S - Снежный покров - Высота снежного покрова, см. При наведении курсора мыши на число - состояние снежного покрова и степень покрытия местности в баллах.